默认 日期 大小 文件数 浏览量 最新下载 xml
bill磁力链接相关资源由用户搜索指令自动获取,结果来源于网络,本站不存储任何资料,亦不承担任何责任,请于24小时内删除,搜索到15158个磁力,显示前4000条数据,用时4ms。
    ... , "Peace Pieces the Music of Bill Evans.cue": 1645, "Peace Pieces ... the Music of Bill Evans.log": 4950, "04. Herbie ... - Peace Pieces the Music of Bill Evans.m3u": 342}
创建时间: 2018-12-29 05:43:06 大小:283.68 MB 文件数量:15 热度:6 最近下载:2025-09-12 17:19:13
    {"Artwork": {"cd.jpg": 1245241, "back.jpg": 1663257, "booklet1.jpg": 2765432, "booklet2.jpg": 3344849}, "folder.jpg": 39621, "playlist.m3u": 1007, "01 - A-Roving.mp3": 10305639, "04 - John Henry.mp3": 10528205, "02 - Greensleeves.mp3": 12192729, "07 - Go ...
创建时间: 2018-12-29 05:50:39 大小:131.18 MB 文件数量:18 热度:8 最近下载:2025-02-06 14:54:08
    {"_-all.m3u": 1599, "01. Business @ the Speed of Thought.mp3": 2403984, "02. Business @ the Speed of Thought.mp3": 2403775, "03. Business @ the Speed of Thought.mp3": 2403776, "04. Business @ the Speed of Thought.mp3": 2403775, "05. Business @ the Speed of ...
创建时间: 2018-12-29 05:51:55 大小:87.8 MB 文件数量:41 热度:5 最近下载:2023-04-18 21:10:08
    {"VISITE HD-ELITE.ME.txt": 706, "Bill.&.Ted.Uma.Aventura.Fantastica.1989.DVD5.NTSC.iso": 4351393792}
创建时间: 2018-12-29 06:21:10 大小:4.05 GB 文件数量:2 热度:9 最近下载:2025-02-16 16:16:01
    ... .txt": 84, "Real.Time.With.Bill.Maher.2018.08.24.720p ... .mkv": 273043047, "Real.Time.With.Bill.Maher.2018.08.24.720p ...
创建时间: 2018-12-29 06:55:36 大小:263.37 MB 文件数量:7 热度:4 最近下载:2025-03-07 11:22:02
    ... ).txt": 546, "Real.Time.with.Bill.Maher.2016.06.10_screenshot.jpg ... ": 27687, "Real.Time.with.Bill.Maher.2016.06.10.(Eng ... ].mp4": 251521575, "Real.Time.with.Bill.Maher.2016.06.10.(Eng ... ].srt": 185954, "Real.Time.with.Bill.Maher.2016.06.10.OVERTIME ...
创建时间: 2018-12-29 06:55:58 大小:263.89 MB 文件数量:5 热度:13 最近下载:2025-03-03 14:31:01
    {"Subs": {"2_Eng.srt": 106792, "3_Eng.srt": 111057}, "RARBG.txt": 30, "Real.Time.with.Bill.Maher.S16E20.PROPER.WEBRip.x264-ION10.mp4": 586666007}
创建时间: 2018-12-29 07:24:30 大小:559.7 MB 文件数量:4 热度:4 最近下载:2023-04-18 22:40:03
    ... ExtraTorrent.cc.txt": 352, "Kill Bill Vol 1 (2003) 720p [Hindi ...
创建时间: 2018-12-29 09:14:12 大小:945.26 MB 文件数量:14 热度:12 最近下载:2025-02-18 02:44:01
创建时间: 2018-12-29 10:15:16 大小:241.41 MB 文件数量:1 热度:8 最近下载:2025-02-20 19:58:03
    {"VIDEO_TS": {"VIDEO_TS.BUP": 16384, "VIDEO_TS.IFO": 16384, "VIDEO_TS.VOB": 114688, "VTS_01_0.BUP": 20480, "VTS_01_0.IFO": 20480, "VTS_01_0.VOB": 389120, "VTS_01_1.VOB": 5345280, "VTS_02_0.BUP": 18432, "VTS_02_0.IFO": 18432, "VTS_02_0.VOB": 114688, " ...
创建时间: 2018-12-29 12:15:27 大小:3.87 GB 文件数量:19 热度:7 最近下载:2023-04-19 01:40:07
    {"Kmila Cdd": {"2010.Single": {"01.Emegemix 94 bpm.mp3": 3805527}}, "2010.Causa E Efeito": {"10.Sou Eu.mp3": 4677470, "11.Corrente.mp3": 4382267, "05.Liberte-se.mp3": 4287176, "03.Mulheres....mp3": 4822151, "Causa E Efeito.jpg": 18605, "01.Causa E Efeito. ...
创建时间: 2018-12-29 13:19:23 大小:259.72 MB 文件数量:61 热度:7 最近下载:2025-08-03 09:52:04
    ... , "Stephane Grappelli With Bill Coleman - Stephane Grappelli With Bill Coleman 1976.cue ... , "Stephane Grappelli With Bill Coleman - Stephane Grappelli With Bill Coleman 1976.flac ...
创建时间: 2018-12-29 13:46:19 大小:801.05 MB 文件数量:6 热度:7 最近下载:2023-04-19 02:30:07
    ... doc": 20992}, "Bill Mankiss “Country Accordion Swing”": {"Bill-Mankiss_-_Cover.png ... ": 1237073, "Bill Mankiss album info ... Redwing - Crooked Stovepipe.mp3": 6214136, "Bill Mankiss Accordion Swing - 14 - Someday ...
创建时间: 2018-12-29 13:46:42 大小:203.85 MB 文件数量:46 热度:7 最近下载:2024-12-16 07:28:01
    {"RARBG.txt": 30, "Real.Time.With.Bill.Maher.2017.04.21.720p.HDTV.x264-BATV.mkv": 1165898064, "real.time.with.bill.maher.2017.04.21.720p.hdtv.x264-batv.nfo": 3866}
创建时间: 2018-12-29 14:13:41 大小:1.09 GB 文件数量:3 热度:5 最近下载:2023-04-19 02:40:05
    ... , Mark Wood, Prince Yahshua and Bill Bailey (27954).mp4": 2257912964}
创建时间: 2018-12-29 14:29:02 大小:2.14 GB 文件数量:204 热度:55 最近下载:2025-05-24 00:39:02
    ... Forever)(Alternative Take).flac": 19766244}, "Bill Evans - Eloquence (1994)": {"Artwork ... txt": 1597, "Bill Evans - Quintessence.wv": 233685302, "Bill Evans - Quintessence.cue ... ": 878, "Bill Evans - Quintessence.log ...
创建时间: 2018-12-29 15:29:26 大小:18.95 GB 文件数量:828 热度:20 最近下载:2025-09-08 14:41:02
    ... Love.flac": 35635530, "Lee Konitz, Bill Frisell, Gary Peacock, Joey Baron ... Note).log": 7152, "Lee Konitz, Bill Frisell, Gary Peacock, Joey Baron ...
创建时间: 2018-12-29 15:43:58 大小:347.88 MB 文件数量:13 热度:13 最近下载:2025-09-18 20:58:09
    ... ": 12961715, "10 - Dragonfly.mp3": 9990033, "Bill Evans 2012.txt": 349, "04 ...
创建时间: 2018-12-29 16:48:55 大小:131.89 MB 文件数量:14 热度:5 最近下载:2023-04-19 04:00:02
    ... Life_ [quartet].flac": 23799897}, "Bill Evans - The Bill Evans Album (1971)": {"Scan ... Debby (alternate).flac": 40746324, "Bill Evans - The Bill Evans Album.log": 5309 ... ": 48541895, "(6) announcement and intermission - Bill Evans.flac": 8662237, "(2) Gloria ...
创建时间: 2018-12-29 17:02:12 大小:15.6 GB 文件数量:298 热度:11 最近下载:2025-03-11 18:55:03
    {"Bill Viola - Hatsu Yume (1981) (Vhsrip).avi": 733984768}
创建时间: 2018-12-29 17:05:36 大小:699.98 MB 文件数量:1 热度:7 最近下载:2024-12-06 07:03:01